This demonstration page uses our WeatherBlox Daily Observations layout. Learn more.

Left ArrowRight Arrow

39.92423, -83.80882

Hourly Observations for March 26, 2017

Temp ( °F °C ) Dew Point ( °F °C ) Humidity (%) Winds ( mph kmh ) Pressure ( in mb ) Visibility ( mi km ) Precip ( " mm )
12:56 am 00:56 Clear 61 16.1 50 10 67 67 SE 10 17 30.01 1016 10 16.0934 0 0
1:56 am 01:56 Mostly Cloudy 59 15 49 9.4 69 69 SE 7 11 30 1016 10 16.0934 0 0
2:56 am 02:56 Cloudy 59 15 49 9.4 69 69 SE 8 13 29.98 1015 10 16.0934 0 0
3:56 am 03:56 Cloudy 59 15 49 9.4 69 69 Calm 29.98 1015 10 16.0934 0 0
4:56 am 04:56 Partly Cloudy 55 12.8 49 9.4 80 80 Calm 29.98 1015 10 16.0934 0 0
5:56 am 05:56 Partly Cloudy 57 13.9 50 10 78 78 WNW 6 9 29.97 1015 10 16.0934 0 0
6:56 am 06:56 Mostly Cloudy 56 13.3 51 10.6 84 84 Calm 29.98 1015 10 16.0934 0 0
7:56 am 07:56 Cloudy with Light Rain 57 13.9 54 12.2 90 90 SW 6 9 29.99 1016 10 16.0934 0 0.0254
8:06 am 08:06 Cloudy with Light Rain 57 14 54 12 88 88 SSW 6 9 30 1016 10 16.0934 0 0.0254
8:30 am 08:30 Cloudy with Light Rain 57 14 54 12 88 88 S 5 7 30 1016 10 16.0934 0 0.0254
8:56 am 08:56 Cloudy with Light Rain 56 13.3 54 12.2 93 93 SSE 6 9 30.01 1016 10 16.0934 0.02 0.508
9:56 am 09:56 Cloudy with Light Rain 58 14.4 55 12.8 90 90 S 8 13 29.99 1016 10 16.0934 0 0.0254
10:07 am 10:07 Cloudy 57 14 55 13 94 94 S 8 13 30 1016 10 16.0934 0 0.0254
10:24 am 10:24 Cloudy with Light Rain 57 14 55 13 94 94 S 10 17 30 1016 10 16.0934 0 0.0254
10:56 am 10:56 Cloudy 59 15 55 12.8 87 87 S 8 13 29.99 1016 10 16.0934 0 0.0254
11:54 am 11:54 Cloudy 61 16 55 13 83 83 S 13 20 29.97 1015 10 16.0934 0 0
11:56 am 11:56 Cloudy 61 16.1 55 12.8 81 81 S 16 26 29.98 1015 10 16.0934 0 0
12:51 pm 12:51 Cloudy with Heavy Rain 57 14 55 13 94 94 SSW 13 20 30 1016 4 6.43736 0.1 2.54
12:56 pm 12:56 Cloudy with Heavy Rain 57 13.9 55 12.8 93 93 SSW 14 22 29.99 1016 4 6.43736 0.17 4.318
1:05 pm 13:05 Cloudy with Heavy Rain 57 14 55 13 94 94 SSW 10 17 30 1016 8 12.87472 0.05 1.27
1:23 pm 13:23 Cloudy with Light Rain 57 14 55 13 94 94 SSW 10 17 30 1016 10 16.0934 0.08 2.032
1:47 pm 13:47 Cloudy with Light Rain 57 14 55 13 94 94 S 10 17 29.97 1015 10 16.0934 0.1 2.54
2:11 pm 14:11 Cloudy with Light Rain 57 14 55 13 94 94 SE 8 13 29.94 1014 10 16.0934 0.01 0.254
2:56 pm 14:56 Partly Cloudy 60 15.6 55 12.8 84 84 SSW 9 15 29.94 1014 10 16.0934 0.01 0.254
3:29 pm 15:29 Mostly Cloudy 61 16 55 13 83 83 S 10 17 29.91 1013 10 16.0934 0 0
3:56 pm 15:56 Mostly Cloudy 62 16.7 56 13.3 80 80 S 12 19 29.91 1013 10 16.0934 0 0
4:56 pm 16:56 Mostly Cloudy 64 17.8 56 13.3 75 75 SSW 10 17 29.9 1013 10 16.0934 0 0
5:03 pm 17:03 Partly Cloudy 64 18 55 13 73 73 S 9 15 29.88 1012 10 16.0934 0 0
5:33 pm 17:33 Mostly Cloudy 63 17 54 12 73 73 SW 12 19 29.85 1011 10 16.0934 0 0
5:40 pm 17:40 Mostly Cloudy 63 17 54 12 73 73 SSW 7 11 29.88 1012 10 16.0934 0 0
5:56 pm 17:56 Mostly Cloudy 62 16.7 55 12.8 78 78 SW 5 7 29.89 1012 10 16.0934 0 0
6:46 pm 18:46 Cloudy with Nearby Thunderstorms 57 14 54 12 88 88 WNW 6 9 29.91 1013 10 16.0934 0.08 2.032
6:56 pm 18:56 Cloudy with Nearby Thunderstorms 57 13.9 53 11.7 87 87 WSW 5 7 29.92 1013 10 16.0934 0.08 2.032
7:18 pm 19:18 Cloudy with Rain 55 13 54 12 94 94 SW 5 7 29.94 1014 10 16.0934 0.02 0.508
7:35 pm 19:35 Cloudy with Light Rain 55 13 54 12 94 94 SW 5 7 29.94 1014 10 16.0934 0.03 0.762
7:42 pm 19:42 Cloudy with Light Rain 55 13 54 12 94 94 WSW 7 11 29.94 1014 10 16.0934 0.04 1.016
7:56 pm 19:56 Cloudy with Light Rain 56 13.3 54 12.2 93 93 WSW 6 9 29.93 1014 10 16.0934 0.04 1.016
8:56 pm 20:56 Cloudy 56 13.3 54 12.2 93 93 S 3 6 29.94 1014 10 16.0934 0.01 0.254
9:56 pm 21:56 Cloudy 56 13.3 54 12.2 93 93 SSW 3 6 29.96 1014 10 16.0934 0 0.0254
10:56 pm 22:56 Cloudy 55 12.8 54 12.2 96 96 SW 7 11 29.96 1015 10 16.0934 0 0
11:38 pm 23:38 Mostly Cloudy 55 13 54 12 94 94 SW 8 13 29.97 1015 10 16.0934 0 0
11:56 pm 23:56 Mostly Cloudy 55 12.8 53 11.7 93 93 SW 8 13 29.96 1015 10 16.0934 0 0

Powered by AerisWeather